Погода в Сретенске

Хотите узнать прогноз погоды в Сретенске? Тогда Вам сюда: Погода в Сретенске

Поиск расширенной информации на нашем сайте:

Полезная информация:

Новости сайта



02.01.2020
Опубликован Долгосрочный прогноз погоды по городам России и ближнего зарубежья на январь 2020 года.
Карты: Прогноз на январь и февраль 2020 года, Сравнение прогнозируемой аномалии приземной температуры воздуха на январь 2020 года по разным моделям.




Погода в Сретенске - сегодня

Время (UTC), дата Ветер
(°,м/с) 
Видим.   Явления Облачность Т
(°С)
Тd
(°С)
f(%) Тe
(°С)
Pmin
(гПа)
dP
(гПа)
Po
(мм)
O2
(г/м3)
Тmin Tmax R s Состояние
почвы
21 23.11.20 220 (ЮЗ) 20000 м    10/0 средняя 
[Ac As]
-7.8 -10.2 83 -8  1021.5  716  298           
00 24.11.20 220 (ЮЗ) 20000 м    10/0 средняя 
[As op]
-6.9 -8.9 86 -8  1022.3  717  297  -9.9      равномерный
сухой снег
100% 
03 24.11.20 220 (ЮЗ) 10 км  слаб. снег  10/0 средняя 
[Ac As]
-4 -6.8 81 -5  1022.9  1.2  718  294           
06 24.11.20 310 (СЗ) 20000 м  {снег}  ясно 
-1.3 -16.3 31 -5  1022.7  0.4  718  292           
09 24.11.20 тихо ()   20000 м    ясно 
-5.4 -17.5 38 -5  1025.7  1.9  720  297           
12 24.11.20 200 (Ю) 20000 м    8/0 средняя, верхняя 
[Ac trans|Ci sp]
-9.1 -17.1 52 -9  1028.6  1.8  721  302    -1.3  0.0     
15 24.11.20 240 (ЮЗ) 20000 м    3/0 верхняя 
[Ci sp]
-14.5 -18.5 72 -18  1031.4  1.2  722  309           
18 24.11.20 230 (ЮЗ) 20000 м    ясно 
-16.5 -19.1 80 -19  1033.1  723  311           
21 24.11.20 210 (ЮЗ) 20000 м    ясно 
-14.3 -17.5 77 -19  1033.2  0.7  723  309           
00 25.11.20 220 (ЮЗ) 20000 м    ясно 
-14.8 -19.6 67 -18  1035.3  1.8  725  310  -17.9      равномерный
сухой снег
100% 
03 25.11.20 230 (ЮЗ) 20000 м    3/0 верхняя 
[Ci sp]
-12.2 -18.3 60 -16  1036.3  1.7  726  308           
06 25.11.20 240 (ЮЗ) 20000 м    3/3 1000 м 
[Cu Sc]
-8.5 -17.7 47 -12  1035.4  726  303           
09 25.11.20 210 (ЮЗ) 20000 м    ясно 
-10.5 -19.6 47 -14  1036.7  0.7  726  306           
12 25.11.20 220 (ЮЗ) 20000 м    ясно 
-15.9 -21.1 64 -18  1039.1  0.8  727  313    -8.3       
15 25.11.20 230 (ЮЗ) 20000 м    ясно 
-17.8 -21.8 71 -22  1040  0.4  727  315           
18 25.11.20 230 (ЮЗ) 20000 м    ясно 
-21.7 -24.7 77 -22  1041.7  0.5  728  320           
21 25.11.20 тихо ()   20000 м    ясно 
-23.7 -26.4 78 -24  1042  -0.3  728  323           
00 26.11.20 250 (З) 20000 м    ясно 
-25 -27.8 77 -26  1043.2  0.7  728  325  -25      равномерный
сухой снег
100% 
03 26.11.20 250 (З) 20000 м    ясно 
-18.1 -22.5 68 -21  1041.6  0.5  728  316  -25.1         
06 26.11.20 250 (З) 20000 м    ясно 
-11.4 -20.3 48 -11  1038.5  -1.1  728  307           
09 26.11.20 090 (В) 20000 м    ясно 
-13.9 -20.4 58 -14  1039.4  0.2  728  310           
12 26.11.20 тихо ()   20000 м    ясно 
-19 -22.1 76 -19  1041.6  0.8  728  317    -10.6       
15 26.11.20 тихо ()   20000 м    ясно 
-23 -25.6 79 -23  1042.9  0.1  728  322           
18 26.11.20 240 (ЮЗ) 20000 м    ясно 
-24.2 -27 78 -25  1043.8  0.5  729  324           
21 26.11.20 тихо ()   20000 м    ясно 
-26.3 -29.3 76 -26  1043.9  -0.4  728  327           
Время (UTC), дата Ветер
(°,м/с) 
Видим.   Явления Облачность Т
(°С)
Тd
(°С)
f(%) Тe
(°С)
Pmin
(гПа)
dP
(гПа)
Po
(мм)
O2
(г/м3)
Тmin Tmax R s Состояние
почвы

Для получения пояснительной информации подведите курсор к названию столбца.

ПОГОДА в Сретенске - архив

Всё, что Вы хотите узнать о погоде в Сретенске - удобно и подробно!

Выберите нужную дату (начиная с 1 января 2019* года) и нажмите кнопку "Найти".
Будут отображены архивные сводки погоды по пункту Сретенск, начиная с указанной даты.


Отображать данные в формате CSV (для использования в таблицах Excel)


Внимание! Наш архив погоды предназначен исключительно для личного некоммерческого использования в познавательных целях. Если Вам необходимы официальные справки о состоянии погоды (для производственных, юридических, коммерческих и т.п. целей), обращайтесь в органы Росгидромета.

*Примечание: данная дата относится к архиву по метеостанциям СССР (Россия, СНГ, Балтия).
Архив по метеостанциям Зарубежной Европы и Азии (кроме Китая) хранится 10 дней, по другим регионам земного шара (Китай, Африка, Америка, Австралия, Океания) - 1 день.

Сретенск - район местоположения метеостанции


Название, широта, долгота, высота метеостанции:
Сретенск 52.2°ш. 117.7°д. 525 м над ур. моря [Российская Федерация]

Дополнительная информация

В oтличие oт бoльшинства пoгoдных сайтoв мы публикуем пoдрoбную метеoинфoрмацию в детальнoм прoфессиoнальнoм фoрмате.

Характеристики температуры и влажнoсти вoздуха измеряются на высoте 2 м в тени вдали oт зданий и деревьев.
Скoрoсть ветра измеряется на высoте 10 м (на урoвне рoста челoвека скoрoсть ветра ниже в 1.5-2 раза). Если метеoстанция нахoдится в гoрoде или в лесу, тo скoрoсть ветра занижена на 2-4 м/с пo сравнению с oткрытым местoм. Скoрoсть ветра над акватoриями крупных рек и oзёр, а также на вершинах хoлмoв на 2-5 м/с выше, чем в oбычных услoвиях.
Атмoсфернoе давление в разных тoчках местнoсти мoжет значительнo oтличаться oт давления на метеoстанции, в зависимoсти oт услoвий рельефа (при пoдъёме на 10 м давление пoнижается примернo на 1 мм рт.ст.).